Home > Weather > Fullerton > Past weeks

Flag for U.S.A. Weather for the Past 2 Weeks in Fullerton, California, U.S.A.

Now
66 °F

Clear.


Feels Like: 66 °F
Forecast: 51 / 86 °F
Wind: No wind

Location: Fullerton Municipal Airport

Current Time: Feb 13, 2016 at 6:40:11 PM

Latest Report: Feb 13, 2016 at 5:53 PM


Visibility: 7 mi

Pressure: 30.01 "Hg

Humidity: 61%

Dew point: 52 °F

Location of FullertonLocation

Historic Weather in Fullerton — Graph

°F

Fullerton Temperature Yesterday

Maximum temperature yesterday: 85 °F (at 1:53 PM)
Minimum temperature yesterday: 50 °F (at 5:53 AM)
Average temperature yesterday: 65 °F

High & Low Weather Summary for the Past Weeks

 TemperatureHumidityPressure
High92 °F (Feb 9, 1:53 PM)90% (Jan 31, 1:02 AM)30.35 "Hg (Jan 31, 1:02 AM)
Low36 °F (Feb 2, 5:53 AM)8% (Feb 7, 2:53 PM)29.61 "Hg (Jan 31, 2:00 PM)
Average62 °F42%30.10 "Hg
* Reported Jan 29 4:53 PM — Feb 13 4:53 PM, Fullerton, Weather by CustomWeather, © 2016

Note: Actual official high and low records may vary slightly from our data, if they occured in-between our weather recording intervals... More about our weather records

Advertising

Fullerton Weather History for the Previous 24 Hours

 ConditionsComfort  
Time TempWeatherWind HumidityBarometerVisibility
4:53 PM
Sat, Feb 13
68 °FSunny.No wind57%30.01 "Hg6 mi
3:53 PM67 °FSunny.5 mph61%30.02 "Hg5 mi
2:53 PM69 °FSunny.6 mph55%30.02 "Hg5 mi
1:53 PM69 °FSunny.5 mph47%30.03 "Hg6 mi
12:53 PM72 °FSunny.6 mph48%30.03 "Hg6 mi
11:53 AM71 °FSunny.6 mph45%30.04 "Hg7 mi
10:53 AM67 °FSunny.No wind53%30.08 "Hg5 mi
9:53 AM63 °FSunny.No wind60%30.09 "Hg5 mi
8:53 AM60 °FSunny.No wind53%30.09 "Hg5 mi
7:53 AM53 °FSunny.No wind80%30.09 "Hg5 mi
6:53 AM50 °FSunny.No wind83%30.10 "Hg5 mi
5:53 AM50 °FFog.No wind86%30.08 "Hg4 mi
4:53 AM52 °FPassing clouds.No wind77%30.07 "Hg8 mi
3:53 AM51 °FPassing clouds.No wind77%30.07 "Hg10 mi
2:53 AM52 °FClear.No wind75%30.07 "Hg10 mi
1:53 AM53 °FClear.No wind74%30.07 "Hg10 mi
12:53 AM55 °FCool.No wind72%30.07 "Hg10 mi
11:53 PM
Fri, Feb 12
57 °FCool.No wind64%30.08 "Hg10 mi
10:53 PM58 °FCool.No wind70%30.07 "Hg10 mi
9:53 PM59 °FClear.No wind69%30.07 "Hg10 mi
8:53 PM61 °FClear.No wind65%30.06 "Hg10 mi
7:53 PM64 °FClear.No wind61%30.04 "Hg10 mi
6:53 PM67 °FClear.No wind57%30.05 "Hg10 mi
Weather by CustomWeather, © 2016

See weather overviewHow to use our weather pages